Year,Month,Day,Hour,Minute,Value (Times are PST for temperature in C)
2020,10,03,00,00,14.30
2020,10,03,00,01,14.30
2020,10,03,00,02,14.30
2020,10,03,00,03,14.30
2020,10,03,00,04,14.30
2020,10,03,00,05,14.30
2020,10,03,00,06,14.20
2020,10,03,00,07,14.20
2020,10,03,00,08,14.30
2020,10,03,00,09,14.30
2020,10,03,00,10,14.30
2020,10,03,00,11,14.30
2020,10,03,00,12,14.30
2020,10,03,00,13,14.30
2020,10,03,00,14,14.30
2020,10,03,00,15,14.30
2020,10,03,00,16,14.30
2020,10,03,00,17,14.30
2020,10,03,00,18,14.30
2020,10,03,00,19,14.30
2020,10,03,00,20,14.30
2020,10,03,00,21,14.30
2020,10,03,00,22,14.30
2020,10,03,00,23,14.30
2020,10,03,00,24,14.30
2020,10,03,00,25,14.20
2020,10,03,00,26,14.20
2020,10,03,00,27,14.20
2020,10,03,00,28,14.20
2020,10,03,00,29,14.20
2020,10,03,00,30,14.10
2020,10,03,00,31,14.10
2020,10,03,00,32,14.00
2020,10,03,00,33,14.00
2020,10,03,00,34,13.90
2020,10,03,00,35,13.90
2020,10,03,00,36,13.90
2020,10,03,00,37,13.80
2020,10,03,00,38,13.80
2020,10,03,00,39,13.80
2020,10,03,00,40,13.80
2020,10,03,00,41,13.70
2020,10,03,00,42,13.70
2020,10,03,00,43,13.70
2020,10,03,00,44,13.70
2020,10,03,00,45,13.70
2020,10,03,00,46,13.70
2020,10,03,00,47,13.70
2020,10,03,00,48,13.70
2020,10,03,00,49,13.70
2020,10,03,00,50,13.70
2020,10,03,00,51,13.70
2020,10,03,00,52,13.80
2020,10,03,00,53,13.80
2020,10,03,00,54,13.80
2020,10,03,00,55,13.80
2020,10,03,00,56,13.90
2020,10,03,00,57,13.90
2020,10,03,00,58,13.90
2020,10,03,00,59,13.90
2020,10,03,01,00,13.90
2020,10,03,01,01,13.90
2020,10,03,01,02,13.90
2020,10,03,01,03,13.90
2020,10,03,01,04,13.90
2020,10,03,01,05,13.90
2020,10,03,01,06,13.90
2020,10,03,01,07,13.90
2020,10,03,01,08,13.90
2020,10,03,01,09,13.90
2020,10,03,01,10,13.80
2020,10,03,01,11,13.80
2020,10,03,01,12,13.80
2020,10,03,01,13,13.80
2020,10,03,01,14,13.70
2020,10,03,01,15,13.80
2020,10,03,01,16,13.80
2020,10,03,01,17,13.80
2020,10,03,01,18,13.80
2020,10,03,01,19,13.80
2020,10,03,01,20,13.80
2020,10,03,01,21,13.80
2020,10,03,01,22,13.80
2020,10,03,01,23,13.80
2020,10,03,01,24,13.80
2020,10,03,01,25,13.80
2020,10,03,01,26,13.80
2020,10,03,01,27,13.80
2020,10,03,01,28,13.80
2020,10,03,01,29,13.80
2020,10,03,01,30,13.80
2020,10,03,01,31,13.70
2020,10,03,01,32,13.70
2020,10,03,01,33,13.70
2020,10,03,01,34,13.70
2020,10,03,01,35,13.70
2020,10,03,01,36,13.70
2020,10,03,01,37,13.70
2020,10,03,01,38,13.70
2020,10,03,01,39,13.70
2020,10,03,01,40,13.70
2020,10,03,01,41,13.70
2020,10,03,01,42,13.70
2020,10,03,01,43,13.70
2020,10,03,01,44,13.70
2020,10,03,01,45,13.70
2020,10,03,01,46,13.70
2020,10,03,01,47,13.60
2020,10,03,01,48,13.60
2020,10,03,01,49,13.60
2020,10,03,01,50,13.60
2020,10,03,01,51,13.50
2020,10,03,01,52,13.60
2020,10,03,01,53,13.60
2020,10,03,01,54,13.60
2020,10,03,01,55,13.60
2020,10,03,01,56,13.70
2020,10,03,01,57,13.70
2020,10,03,01,58,13.70
2020,10,03,01,59,13.70
2020,10,03,02,00,13.70
2020,10,03,02,01,13.70
2020,10,03,02,02,13.70
2020,10,03,02,03,13.70
2020,10,03,02,04,13.70
2020,10,03,02,05,13.60
2020,10,03,02,06,13.60
2020,10,03,02,07,13.60
2020,10,03,02,08,13.60
2020,10,03,02,09,13.60
2020,10,03,02,10,13.60
2020,10,03,02,11,13.60
2020,10,03,02,12,13.50
2020,10,03,02,13,13.60
2020,10,03,02,14,13.60
2020,10,03,02,15,13.60
2020,10,03,02,16,13.60
2020,10,03,02,17,13.60
2020,10,03,02,18,13.60
2020,10,03,02,19,13.60
2020,10,03,02,20,13.70
2020,10,03,02,21,13.70
2020,10,03,02,22,13.70
2020,10,03,02,23,13.80
2020,10,03,02,24,13.80
2020,10,03,02,25,13.80
2020,10,03,02,26,13.80
2020,10,03,02,27,13.80
2020,10,03,02,28,13.80
2020,10,03,02,29,13.80
2020,10,03,02,30,13.80
2020,10,03,02,31,13.80
2020,10,03,02,32,13.80
2020,10,03,02,33,13.80
2020,10,03,02,34,13.80
2020,10,03,02,35,13.80
2020,10,03,02,36,13.80
2020,10,03,02,37,13.80
2020,10,03,02,38,13.80
2020,10,03,02,39,13.80
2020,10,03,02,40,13.90
2020,10,03,02,41,13.90
2020,10,03,02,42,13.90
2020,10,03,02,43,13.90
2020,10,03,02,44,14.00
2020,10,03,02,45,13.90
2020,10,03,02,46,13.90
2020,10,03,02,47,13.90
2020,10,03,02,48,13.90
2020,10,03,02,49,13.90
2020,10,03,02,50,13.80
2020,10,03,02,51,13.80
2020,10,03,02,52,13.80
2020,10,03,02,53,13.90
2020,10,03,02,54,13.90
2020,10,03,02,55,13.90
2020,10,03,02,56,13.90
2020,10,03,02,57,13.90
2020,10,03,02,58,13.90
2020,10,03,02,59,13.80
2020,10,03,03,00,13.80
2020,10,03,03,01,13.80
2020,10,03,03,02,13.70
2020,10,03,03,03,13.70
2020,10,03,03,04,13.60
2020,10,03,03,05,13.60
2020,10,03,03,06,13.60
2020,10,03,03,07,13.50
2020,10,03,03,08,13.50
2020,10,03,03,09,13.50
2020,10,03,03,10,13.50
2020,10,03,03,11,13.40
2020,10,03,03,12,13.40
2020,10,03,03,13,13.40
2020,10,03,03,14,13.40
2020,10,03,03,15,13.40
2020,10,03,03,16,13.40
2020,10,03,03,17,13.50
2020,10,03,03,18,13.60
2020,10,03,03,19,13.60
2020,10,03,03,20,13.60
2020,10,03,03,21,13.60
2020,10,03,03,22,13.60
2020,10,03,03,23,13.50
2020,10,03,03,24,13.50
2020,10,03,03,25,13.40
2020,10,03,03,26,13.40
2020,10,03,03,27,13.40
2020,10,03,03,28,13.40
2020,10,03,03,29,13.30
2020,10,03,03,30,13.30
2020,10,03,03,31,13.30
2020,10,03,03,32,13.30
2020,10,03,03,33,13.30
2020,10,03,03,34,13.30
2020,10,03,03,35,13.30
2020,10,03,03,36,13.40
2020,10,03,03,37,13.40
2020,10,03,03,38,13.40
2020,10,03,03,39,13.40
2020,10,03,03,40,13.40
2020,10,03,03,41,13.50
2020,10,03,03,42,13.50
2020,10,03,03,43,13.50
2020,10,03,03,44,13.50
2020,10,03,03,45,13.50
2020,10,03,03,46,13.50
2020,10,03,03,47,13.50
2020,10,03,03,48,13.50
2020,10,03,03,49,13.50
2020,10,03,03,50,13.50
2020,10,03,03,51,13.40
2020,10,03,03,52,13.40
2020,10,03,03,53,13.40
2020,10,03,03,54,13.30
2020,10,03,03,55,13.30
2020,10,03,03,56,13.20
2020,10,03,03,57,13.20
2020,10,03,03,58,13.20
2020,10,03,03,59,13.20
2020,10,03,04,00,13.20
2020,10,03,04,01,13.10
2020,10,03,04,02,13.10
2020,10,03,04,03,13.10
2020,10,03,04,04,13.10
2020,10,03,04,05,13.10
2020,10,03,04,06,13.10
2020,10,03,04,07,13.10
2020,10,03,04,08,13.10
2020,10,03,04,09,13.00
2020,10,03,04,10,13.00
2020,10,03,04,11,13.00
2020,10,03,04,12,13.00
2020,10,03,04,13,13.00
2020,10,03,04,14,13.00
2020,10,03,04,15,13.00
2020,10,03,04,16,13.10
2020,10,03,04,17,13.10
2020,10,03,04,18,13.10
2020,10,03,04,19,13.10
2020,10,03,04,20,13.10
2020,10,03,04,21,13.00
2020,10,03,04,22,13.00
2020,10,03,04,23,13.00
2020,10,03,04,24,13.00
2020,10,03,04,25,13.00
2020,10,03,04,26,13.00
2020,10,03,04,27,13.00
2020,10,03,04,28,13.00
2020,10,03,04,29,13.00
2020,10,03,04,30,13.00
2020,10,03,04,31,13.00
2020,10,03,04,32,13.00
2020,10,03,04,33,13.00
2020,10,03,04,34,12.90
2020,10,03,04,35,12.80
2020,10,03,04,36,12.80
2020,10,03,04,37,12.80
2020,10,03,04,38,12.70
2020,10,03,04,39,12.70
2020,10,03,04,40,12.70
2020,10,03,04,41,12.70
2020,10,03,04,42,12.80
2020,10,03,04,43,12.80
2020,10,03,04,44,12.80
2020,10,03,04,45,12.90
2020,10,03,04,46,12.90
2020,10,03,04,47,12.90
2020,10,03,04,48,12.90
2020,10,03,04,49,12.90
2020,10,03,04,50,12.90
2020,10,03,04,51,12.90
2020,10,03,04,52,12.90
2020,10,03,04,53,12.80
2020,10,03,04,54,12.80
2020,10,03,04,55,12.80
2020,10,03,04,56,12.80
2020,10,03,04,57,12.70
2020,10,03,04,58,12.70
2020,10,03,04,59,12.70
2020,10,03,05,00,12.70
2020,10,03,05,01,12.70
2020,10,03,05,02,12.70
2020,10,03,05,03,12.70
2020,10,03,05,04,12.70
2020,10,03,05,05,12.70
2020,10,03,05,06,12.70
2020,10,03,05,07,12.70
2020,10,03,05,08,12.70
2020,10,03,05,09,12.70
2020,10,03,05,10,12.70
2020,10,03,05,11,12.70
2020,10,03,05,12,12.70
2020,10,03,05,13,12.60
2020,10,03,05,14,12.60
2020,10,03,05,15,12.60
2020,10,03,05,16,12.60
2020,10,03,05,17,12.60
2020,10,03,05,18,12.60
2020,10,03,05,19,12.60
2020,10,03,05,20,12.60
2020,10,03,05,21,12.60
2020,10,03,05,22,12.70
2020,10,03,05,23,12.70
2020,10,03,05,24,12.70
2020,10,03,05,25,12.70
2020,10,03,05,26,12.80
2020,10,03,05,27,12.80
2020,10,03,05,28,12.80
2020,10,03,05,29,12.80
2020,10,03,05,30,12.80
2020,10,03,05,31,12.80
2020,10,03,05,32,12.80
2020,10,03,05,33,12.80
2020,10,03,05,34,12.70
2020,10,03,05,35,12.70
2020,10,03,05,36,12.80
2020,10,03,05,37,12.80
2020,10,03,05,38,12.80
2020,10,03,05,39,12.80
2020,10,03,05,40,12.80
2020,10,03,05,41,12.80
2020,10,03,05,42,12.80
2020,10,03,05,43,12.70
2020,10,03,05,44,12.70
2020,10,03,05,45,12.70
2020,10,03,05,46,12.60
2020,10,03,05,47,12.60
2020,10,03,05,48,12.60
2020,10,03,05,49,12.60
2020,10,03,05,50,12.60
2020,10,03,05,51,12.60
2020,10,03,05,52,12.60
2020,10,03,05,53,12.60
2020,10,03,05,54,12.60
2020,10,03,05,55,12.60
2020,10,03,05,56,12.60
2020,10,03,05,57,12.70
2020,10,03,05,58,12.70
2020,10,03,05,59,12.70
2020,10,03,06,00,12.70
2020,10,03,06,01,12.60
2020,10,03,06,02,12.60
2020,10,03,06,03,12.60
2020,10,03,06,04,12.60
2020,10,03,06,05,12.50
2020,10,03,06,06,12.50
2020,10,03,06,07,12.50
2020,10,03,06,08,12.50
2020,10,03,06,09,12.50
2020,10,03,06,10,12.50
2020,10,03,06,11,12.50
2020,10,03,06,12,12.50
2020,10,03,06,13,12.50
2020,10,03,06,14,12.50
2020,10,03,06,15,12.50
2020,10,03,06,16,12.40
2020,10,03,06,17,12.40
2020,10,03,06,18,12.40
2020,10,03,06,19,12.40
2020,10,03,06,20,12.50
2020,10,03,06,21,12.60
2020,10,03,06,22,12.60
2020,10,03,06,23,12.60
2020,10,03,06,24,12.60
2020,10,03,06,25,12.60
2020,10,03,06,26,12.60
2020,10,03,06,27,12.60
2020,10,03,06,28,12.60
2020,10,03,06,29,12.60
2020,10,03,06,30,12.60
2020,10,03,06,31,12.50
2020,10,03,06,32,12.50
2020,10,03,06,33,12.60
2020,10,03,06,34,12.50
2020,10,03,06,35,12.50
2020,10,03,06,36,12.50
2020,10,03,06,37,12.50
2020,10,03,06,38,12.40
2020,10,03,06,39,12.40
2020,10,03,06,40,12.40
2020,10,03,06,41,12.40
2020,10,03,06,42,12.40
2020,10,03,06,43,12.40
2020,10,03,06,44,12.40
2020,10,03,06,45,12.40
2020,10,03,06,46,12.40
2020,10,03,06,47,12.30
2020,10,03,06,48,12.30
2020,10,03,06,49,12.30
2020,10,03,06,50,12.30
2020,10,03,06,51,12.20
2020,10,03,06,52,12.20
2020,10,03,06,53,12.20
2020,10,03,06,54,12.20
2020,10,03,06,55,12.20
2020,10,03,06,56,12.20
2020,10,03,06,57,12.20
2020,10,03,06,58,12.10
2020,10,03,06,59,12.20
2020,10,03,07,00,12.10
2020,10,03,07,01,12.10
2020,10,03,07,02,12.20
2020,10,03,07,03,12.20
2020,10,03,07,04,12.20
2020,10,03,07,05,12.20
2020,10,03,07,06,12.20
2020,10,03,07,07,12.30
2020,10,03,07,08,12.30
2020,10,03,07,09,12.30
2020,10,03,07,10,12.30
2020,10,03,07,11,12.30
2020,10,03,07,12,12.20
2020,10,03,07,13,12.20
2020,10,03,07,14,12.20
2020,10,03,07,15,12.10
2020,10,03,07,16,12.10
2020,10,03,07,17,12.10
2020,10,03,07,18,12.10
2020,10,03,07,19,12.10
2020,10,03,07,20,12.10
2020,10,03,07,21,12.20
2020,10,03,07,22,12.20
2020,10,03,07,23,12.20
2020,10,03,07,24,12.20
2020,10,03,07,25,12.20
2020,10,03,07,26,12.20
2020,10,03,07,27,12.20
2020,10,03,07,28,12.20
2020,10,03,07,29,12.20
2020,10,03,07,30,12.20
2020,10,03,07,31,12.20
2020,10,03,07,32,12.10
2020,10,03,07,33,12.10
2020,10,03,07,34,12.00
2020,10,03,07,35,12.00
2020,10,03,07,36,11.90
2020,10,03,07,37,11.90
2020,10,03,07,38,11.80
2020,10,03,07,39,11.90
2020,10,03,07,40,11.90
2020,10,03,07,41,11.90
2020,10,03,07,42,11.90
2020,10,03,07,43,11.90
2020,10,03,07,44,11.90
2020,10,03,07,45,11.90
2020,10,03,07,46,11.90
2020,10,03,07,47,11.90
2020,10,03,07,48,11.90
2020,10,03,07,49,11.90
2020,10,03,07,50,11.80
2020,10,03,07,51,11.80
2020,10,03,07,52,11.80
2020,10,03,07,53,11.80
2020,10,03,07,54,11.80
2020,10,03,07,55,11.80
2020,10,03,07,56,11.80
2020,10,03,07,57,11.80
2020,10,03,07,58,11.80
2020,10,03,07,59,11.80
2020,10,03,08,00,11.80
2020,10,03,08,01,11.80
2020,10,03,08,02,11.80
2020,10,03,08,03,11.80
2020,10,03,08,04,11.80
2020,10,03,08,05,11.80
2020,10,03,08,06,11.80
2020,10,03,08,07,11.80
2020,10,03,08,08,11.80
2020,10,03,08,09,11.80
2020,10,03,08,10,11.90
2020,10,03,08,11,11.90
2020,10,03,08,12,11.90
2020,10,03,08,13,11.90
2020,10,03,08,14,12.00
2020,10,03,08,15,12.00
2020,10,03,08,16,12.00
2020,10,03,08,17,12.00
2020,10,03,08,18,12.10
2020,10,03,08,19,12.10
2020,10,03,08,20,12.10
2020,10,03,08,21,12.10
2020,10,03,08,22,12.10
2020,10,03,08,23,12.20
2020,10,03,08,24,12.20
2020,10,03,08,25,12.20
2020,10,03,08,26,12.20
2020,10,03,08,27,12.20
2020,10,03,08,28,12.20
2020,10,03,08,29,12.30
2020,10,03,08,30,12.30
2020,10,03,08,31,12.30
2020,10,03,08,32,12.30
2020,10,03,08,33,12.40
2020,10,03,08,34,12.40
2020,10,03,08,35,12.40
2020,10,03,08,36,12.50
2020,10,03,08,37,12.50
2020,10,03,08,38,12.50
2020,10,03,08,39,12.50
2020,10,03,08,40,12.60
2020,10,03,08,41,12.60
2020,10,03,08,42,12.60
2020,10,03,08,43,12.60
2020,10,03,08,44,12.60
2020,10,03,08,45,12.60
2020,10,03,08,46,12.70
2020,10,03,08,47,12.70
2020,10,03,08,48,12.70
2020,10,03,08,49,12.70
2020,10,03,08,50,12.80
2020,10,03,08,51,12.80
2020,10,03,08,52,12.80
2020,10,03,08,53,12.80
2020,10,03,08,54,12.90
2020,10,03,08,55,12.90
2020,10,03,08,56,12.90
2020,10,03,08,57,12.90
2020,10,03,08,58,12.90
2020,10,03,08,59,12.90
2020,10,03,09,00,12.90
2020,10,03,09,01,12.80
2020,10,03,09,02,12.80
2020,10,03,09,03,12.80
2020,10,03,09,04,12.80
2020,10,03,09,05,12.80
2020,10,03,09,06,12.80
2020,10,03,09,07,12.80
2020,10,03,09,08,12.80
2020,10,03,09,09,12.80
2020,10,03,09,10,12.80
2020,10,03,09,11,12.80
2020,10,03,09,12,12.80
2020,10,03,09,13,12.80
2020,10,03,09,14,12.80
2020,10,03,09,15,12.70
2020,10,03,09,16,12.70
2020,10,03,09,17,12.70
2020,10,03,09,18,12.80
2020,10,03,09,19,12.80
2020,10,03,09,20,12.80
2020,10,03,09,21,12.80
2020,10,03,09,22,12.80
2020,10,03,09,23,12.90
2020,10,03,09,24,12.90
2020,10,03,09,25,12.90
2020,10,03,09,26,12.90
2020,10,03,09,27,12.80
2020,10,03,09,28,12.80
2020,10,03,09,29,12.80
2020,10,03,09,30,12.80
2020,10,03,09,31,12.80
2020,10,03,09,32,12.80
2020,10,03,09,33,12.70
2020,10,03,09,34,12.80
2020,10,03,09,35,12.80
2020,10,03,09,36,12.80
2020,10,03,09,37,12.90
2020,10,03,09,38,13.00
2020,10,03,09,39,13.10
2020,10,03,09,40,13.10
2020,10,03,09,41,13.10
2020,10,03,09,42,13.20
2020,10,03,09,43,13.20
2020,10,03,09,44,13.20
2020,10,03,09,45,13.20
2020,10,03,09,46,13.30
2020,10,03,09,47,13.30
2020,10,03,09,48,13.40
2020,10,03,09,49,13.40
2020,10,03,09,50,13.40
2020,10,03,09,51,13.40
2020,10,03,09,52,13.40
2020,10,03,09,53,13.40
2020,10,03,09,54,13.40
2020,10,03,09,55,13.30
2020,10,03,09,56,13.30
2020,10,03,09,57,13.30
2020,10,03,09,58,13.40
2020,10,03,09,59,13.40
2020,10,03,10,00,13.40
2020,10,03,10,01,13.40
2020,10,03,10,02,13.50
2020,10,03,10,03,13.60
2020,10,03,10,04,13.60
2020,10,03,10,05,13.60
2020,10,03,10,06,13.60
2020,10,03,10,07,13.60
2020,10,03,10,08,13.60
2020,10,03,10,09,13.70
2020,10,03,10,10,13.70
2020,10,03,10,11,13.70
2020,10,03,10,12,13.70
2020,10,03,10,13,13.80
2020,10,03,10,14,13.80
2020,10,03,10,15,13.90
2020,10,03,10,16,14.00
2020,10,03,10,17,14.00
2020,10,03,10,18,14.00
2020,10,03,10,19,14.00
2020,10,03,10,20,14.00
2020,10,03,10,21,14.10
2020,10,03,10,22,14.10
2020,10,03,10,23,14.10
2020,10,03,10,24,14.10
2020,10,03,10,25,14.10
2020,10,03,10,26,14.10
2020,10,03,10,27,14.10
2020,10,03,10,28,14.10
2020,10,03,10,29,14.10
2020,10,03,10,30,14.10
2020,10,03,10,31,14.10
2020,10,03,10,32,14.10
2020,10,03,10,33,14.20
2020,10,03,10,34,14.10
2020,10,03,10,35,14.10
2020,10,03,10,36,14.10
2020,10,03,10,37,14.10
2020,10,03,10,38,14.10
2020,10,03,10,39,14.10
2020,10,03,10,40,14.10
2020,10,03,10,41,14.00
2020,10,03,10,42,14.10
2020,10,03,10,43,14.10
2020,10,03,10,44,14.00
2020,10,03,10,45,14.00
2020,10,03,10,46,14.00
2020,10,03,10,47,14.00
2020,10,03,10,48,14.00
2020,10,03,10,49,14.00
2020,10,03,10,50,14.10
2020,10,03,10,51,14.10
2020,10,03,10,52,14.10
2020,10,03,10,53,14.10
2020,10,03,10,54,14.10
2020,10,03,10,55,14.10
2020,10,03,10,56,14.10
2020,10,03,10,57,14.20
2020,10,03,10,58,14.30
2020,10,03,10,59,14.30
2020,10,03,11,00,14.30
2020,10,03,11,01,14.30
2020,10,03,11,02,14.30
2020,10,03,11,03,14.40
2020,10,03,11,04,14.40
2020,10,03,11,05,14.50
2020,10,03,11,06,14.60
2020,10,03,11,07,14.60
2020,10,03,11,08,14.60
2020,10,03,11,09,14.60
2020,10,03,11,10,14.60
2020,10,03,11,11,14.60
2020,10,03,11,12,14.70
2020,10,03,11,13,14.80
2020,10,03,11,14,14.80
2020,10,03,11,15,14.90
2020,10,03,11,16,15.00
2020,10,03,11,17,15.10
2020,10,03,11,18,15.10
2020,10,03,11,19,15.20
2020,10,03,11,20,15.30
2020,10,03,11,21,15.30
2020,10,03,11,22,15.40
2020,10,03,11,23,15.50
2020,10,03,11,24,15.60
2020,10,03,11,25,15.70
2020,10,03,11,26,15.80
2020,10,03,11,27,15.90
2020,10,03,11,28,15.90
2020,10,03,11,29,16.00
2020,10,03,11,30,16.00
2020,10,03,11,31,16.10
2020,10,03,11,32,16.10
2020,10,03,11,33,16.20
2020,10,03,11,34,16.20
2020,10,03,11,35,16.20
2020,10,03,11,36,16.30
2020,10,03,11,37,16.30
2020,10,03,11,38,16.40
2020,10,03,11,39,16.40
2020,10,03,11,40,16.40
2020,10,03,11,41,16.50
2020,10,03,11,42,16.50
2020,10,03,11,43,16.60
2020,10,03,11,44,16.60
2020,10,03,11,45,16.70
2020,10,03,11,46,16.70
2020,10,03,11,47,16.80
2020,10,03,11,48,16.80
2020,10,03,11,49,16.80
2020,10,03,11,50,16.80
2020,10,03,11,51,16.90
2020,10,03,11,52,16.90
2020,10,03,11,53,16.90
2020,10,03,11,54,16.90
2020,10,03,11,55,16.90
2020,10,03,11,56,16.90
2020,10,03,11,57,16.90
2020,10,03,11,58,17.00
2020,10,03,11,59,17.00
2020,10,03,12,00,17.00
2020,10,03,12,01,17.00
2020,10,03,12,02,17.00
2020,10,03,12,03,17.00
2020,10,03,12,04,17.00
2020,10,03,12,05,17.00
2020,10,03,12,06,17.00
2020,10,03,12,07,17.00
2020,10,03,12,08,17.10
2020,10,03,12,09,17.10
2020,10,03,12,10,17.20
2020,10,03,12,11,17.30
2020,10,03,12,12,17.30
2020,10,03,12,13,17.30
2020,10,03,12,14,17.30
2020,10,03,12,15,17.30
2020,10,03,12,16,17.40
2020,10,03,12,17,17.40
2020,10,03,12,18,17.40
2020,10,03,12,19,17.50
2020,10,03,12,20,17.50
2020,10,03,12,21,17.50
2020,10,03,12,22,17.50
2020,10,03,12,23,17.60
2020,10,03,12,24,17.60
2020,10,03,12,25,17.60
2020,10,03,12,26,17.60
2020,10,03,12,27,17.50
2020,10,03,12,28,17.50
2020,10,03,12,29,17.60
2020,10,03,12,30,17.60
2020,10,03,12,31,17.70
2020,10,03,12,32,17.70
2020,10,03,12,33,17.60
2020,10,03,12,34,17.60
2020,10,03,12,35,17.60
2020,10,03,12,36,17.60
2020,10,03,12,37,17.60
2020,10,03,12,38,17.60
2020,10,03,12,39,17.60
2020,10,03,12,40,17.60
2020,10,03,12,41,17.70
2020,10,03,12,42,17.70
2020,10,03,12,43,17.70
2020,10,03,12,44,17.80
2020,10,03,12,45,17.80
2020,10,03,12,46,17.80
2020,10,03,12,47,17.70
2020,10,03,12,48,17.60
2020,10,03,12,49,17.40
2020,10,03,12,50,17.40
2020,10,03,12,51,17.30
2020,10,03,12,52,17.10
2020,10,03,12,53,17.00
2020,10,03,12,54,17.00
2020,10,03,12,55,17.00
2020,10,03,12,56,17.00
2020,10,03,12,57,17.00
2020,10,03,12,58,17.00
2020,10,03,12,59,17.00
2020,10,03,13,00,17.00
2020,10,03,13,01,17.00
2020,10,03,13,02,17.10
2020,10,03,13,03,17.10
2020,10,03,13,04,17.20
2020,10,03,13,05,17.20
2020,10,03,13,06,17.20
2020,10,03,13,07,17.20
2020,10,03,13,08,17.20
2020,10,03,13,09,17.20
2020,10,03,13,10,17.30
2020,10,03,13,11,17.30
2020,10,03,13,12,17.30
2020,10,03,13,13,17.30
2020,10,03,13,14,17.20
2020,10,03,13,15,17.10
2020,10,03,13,16,17.10
2020,10,03,13,17,17.10
2020,10,03,13,18,17.10
2020,10,03,13,19,17.20
2020,10,03,13,20,17.20
2020,10,03,13,21,17.20
2020,10,03,13,22,17.20
2020,10,03,13,23,17.10
2020,10,03,13,24,17.20
2020,10,03,13,25,17.20
2020,10,03,13,26,17.20
2020,10,03,13,27,17.20
2020,10,03,13,28,17.20
2020,10,03,13,29,17.30
2020,10,03,13,30,17.30
2020,10,03,13,31,17.40
2020,10,03,13,32,17.40
2020,10,03,13,33,17.50
2020,10,03,13,34,17.60
2020,10,03,13,35,17.60
2020,10,03,13,36,17.60
2020,10,03,13,37,17.70
2020,10,03,13,38,17.70
2020,10,03,13,39,17.70
2020,10,03,13,40,17.80
2020,10,03,13,41,17.90
2020,10,03,13,42,17.90
2020,10,03,13,43,18.00
2020,10,03,13,44,18.00
2020,10,03,13,45,18.00
2020,10,03,13,46,18.00
2020,10,03,13,47,17.90
2020,10,03,13,48,17.90
2020,10,03,13,49,17.90
2020,10,03,13,50,17.90
2020,10,03,13,51,17.90
2020,10,03,13,52,17.90
2020,10,03,13,53,17.90
2020,10,03,13,54,17.80
2020,10,03,13,55,17.80
2020,10,03,13,56,17.70
2020,10,03,13,57,17.70
2020,10,03,13,58,17.60
2020,10,03,13,59,17.50
2020,10,03,14,00,17.50
2020,10,03,14,01,17.50
2020,10,03,14,02,17.40
2020,10,03,14,03,17.50
2020,10,03,14,04,17.50
2020,10,03,14,05,17.60
2020,10,03,14,06,17.70
2020,10,03,14,07,17.80
2020,10,03,14,08,17.90
2020,10,03,14,09,17.90
2020,10,03,14,10,18.00
2020,10,03,14,11,18.10
2020,10,03,14,12,18.20
2020,10,03,14,13,18.30
2020,10,03,14,14,18.30
2020,10,03,14,15,18.30
2020,10,03,14,16,18.40
2020,10,03,14,17,18.40
2020,10,03,14,18,18.50
2020,10,03,14,19,18.50
2020,10,03,14,20,18.60
2020,10,03,14,21,18.70
2020,10,03,14,22,18.60
2020,10,03,14,23,18.50
2020,10,03,14,24,18.30
2020,10,03,14,25,18.10
2020,10,03,14,26,18.10
2020,10,03,14,27,18.10
2020,10,03,14,28,18.10
2020,10,03,14,29,18.00
2020,10,03,14,30,17.90
2020,10,03,14,31,17.90
2020,10,03,14,32,17.90
2020,10,03,14,33,17.90
2020,10,03,14,34,17.90
2020,10,03,14,35,17.90
2020,10,03,14,36,18.00
2020,10,03,14,37,18.00
2020,10,03,14,38,18.10
2020,10,03,14,39,18.10
2020,10,03,14,40,18.10
2020,10,03,14,41,18.00
2020,10,03,14,42,18.00
2020,10,03,14,43,18.00
2020,10,03,14,44,18.00
2020,10,03,14,45,18.00
2020,10,03,14,46,18.00
2020,10,03,14,47,18.10
2020,10,03,14,48,18.20
2020,10,03,14,49,18.20
2020,10,03,14,50,18.30
2020,10,03,14,51,18.30
2020,10,03,14,52,18.30
2020,10,03,14,53,18.30
2020,10,03,14,54,18.30
2020,10,03,14,55,18.40
2020,10,03,14,56,18.40
2020,10,03,14,57,18.50
2020,10,03,14,58,18.60
2020,10,03,14,59,18.70
2020,10,03,15,00,18.80
2020,10,03,15,01,18.90
2020,10,03,15,02,18.90
2020,10,03,15,03,19.00
2020,10,03,15,04,19.10
2020,10,03,15,05,19.10
2020,10,03,15,06,19.10
2020,10,03,15,07,19.00
2020,10,03,15,08,18.90
2020,10,03,15,09,18.90
2020,10,03,15,10,18.80
2020,10,03,15,11,18.80
2020,10,03,15,12,18.90
2020,10,03,15,13,18.90
2020,10,03,15,14,18.90
2020,10,03,15,15,18.90
2020,10,03,15,16,18.90
2020,10,03,15,17,18.90
2020,10,03,15,18,19.00
2020,10,03,15,19,19.10
2020,10,03,15,20,19.10
2020,10,03,15,21,19.20
2020,10,03,15,22,19.30
2020,10,03,15,23,19.30
2020,10,03,15,24,19.30
2020,10,03,15,25,19.30
2020,10,03,15,26,19.30
2020,10,03,15,27,19.20
2020,10,03,15,28,19.20
2020,10,03,15,29,19.20
2020,10,03,15,30,19.20
2020,10,03,15,31,19.20
2020,10,03,15,32,19.20
2020,10,03,15,33,19.10
2020,10,03,15,34,19.10
2020,10,03,15,35,19.00
2020,10,03,15,36,18.90
2020,10,03,15,37,18.90
2020,10,03,15,38,19.00
2020,10,03,15,39,19.00
2020,10,03,15,40,19.10
2020,10,03,15,41,19.10
2020,10,03,15,42,19.10
2020,10,03,15,43,19.10
2020,10,03,15,44,19.10
2020,10,03,15,45,19.10
2020,10,03,15,46,19.10
2020,10,03,15,47,19.20
2020,10,03,15,48,19.20
2020,10,03,15,49,19.30
2020,10,03,15,50,19.20
2020,10,03,15,51,19.20
2020,10,03,15,52,19.10
2020,10,03,15,53,19.10
2020,10,03,15,54,19.00
2020,10,03,15,55,19.00
2020,10,03,15,56,18.90
2020,10,03,15,57,18.80
2020,10,03,15,58,18.70
2020,10,03,15,59,18.70
2020,10,03,16,00,18.60
2020,10,03,16,01,18.60
2020,10,03,16,02,18.70
2020,10,03,16,03,18.70
2020,10,03,16,04,18.70
2020,10,03,16,05,18.80
2020,10,03,16,06,18.80
2020,10,03,16,07,18.80
2020,10,03,16,08,18.70
2020,10,03,16,09,18.70
2020,10,03,16,10,18.70
2020,10,03,16,11,18.70
2020,10,03,16,12,18.70
2020,10,03,16,13,18.70
2020,10,03,16,14,18.60
2020,10,03,16,15,18.60
2020,10,03,16,16,18.60
2020,10,03,16,17,18.60
2020,10,03,16,18,18.60
2020,10,03,16,19,18.60
2020,10,03,16,20,18.70
2020,10,03,16,21,18.70
2020,10,03,16,22,18.80
2020,10,03,16,23,18.80
2020,10,03,16,24,18.90
2020,10,03,16,25,18.90
2020,10,03,16,26,18.90
2020,10,03,16,27,18.90
2020,10,03,16,28,18.90
2020,10,03,16,29,18.90
2020,10,03,16,30,18.90
2020,10,03,16,31,18.90
2020,10,03,16,32,18.80
2020,10,03,16,33,18.80
2020,10,03,16,34,18.80
2020,10,03,16,35,18.80
2020,10,03,16,36,18.80
2020,10,03,16,37,18.80
2020,10,03,16,38,18.80
2020,10,03,16,39,18.80
2020,10,03,16,40,18.80
2020,10,03,16,41,18.80
2020,10,03,16,42,18.70
2020,10,03,16,43,18.70
2020,10,03,16,44,18.70
2020,10,03,16,45,18.70
2020,10,03,16,46,18.70
2020,10,03,16,47,18.60
2020,10,03,16,48,18.60
2020,10,03,16,49,18.60
2020,10,03,16,50,18.60
2020,10,03,16,51,18.60
2020,10,03,16,52,18.70
2020,10,03,16,53,18.70
2020,10,03,16,54,18.70
2020,10,03,16,55,18.70
2020,10,03,16,56,18.70
2020,10,03,16,57,18.70
2020,10,03,16,58,18.70
2020,10,03,16,59,18.70
2020,10,03,17,00,18.70
2020,10,03,17,01,18.70
2020,10,03,17,02,18.80
2020,10,03,17,03,18.80
2020,10,03,17,04,18.80
2020,10,03,17,05,18.80
2020,10,03,17,06,18.80
2020,10,03,17,07,18.70
2020,10,03,17,08,18.70
2020,10,03,17,09,18.60
2020,10,03,17,10,18.60
2020,10,03,17,11,18.50
2020,10,03,17,12,18.50
2020,10,03,17,13,18.50
2020,10,03,17,14,18.40
2020,10,03,17,15,18.40
2020,10,03,17,16,18.30
2020,10,03,17,17,18.30
2020,10,03,17,18,18.30
2020,10,03,17,19,18.20